TimeAKDT,TemperatureF,Dew PointF,Humidity,Sea Level PressureIn,VisibilityMPH,Wind Direction,Wind SpeedMPH,Gust SpeedMPH,PrecipitationIn,Events,Conditions,WindDirDegrees,DateUTC
12:53 AM,12.9,7.0,77,29.68,10.0,ESE,3.5,-,N/A,,Mostly Cloudy,120,2012-11-01 08:53:00
1:53 AM,10.9,6.1,81,29.70,10.0,Calm,Calm,-,N/A,,Scattered Clouds,0,2012-11-01 09:53:00
2:53 AM,23.0,8.1,53,29.71,10.0,NNW,9.2,-,N/A,,Scattered Clouds,340,2012-11-01 10:53:00
3:53 AM,25.0,6.1,45,29.73,10.0,Variable,4.6,-,N/A,,Scattered Clouds,0,2012-11-01 11:53:00
5:53 AM,24.1,5.0,44,29.75,10.0,North,12.7,-,N/A,,Scattered Clouds,10,2012-11-01 13:53:00
6:53 AM,24.1,5.0,44,29.76,10.0,North,11.5,20.7,N/A,,Scattered Clouds,360,2012-11-01 14:53:00
7:53 AM,21.9,9.0,58,29.78,10.0,NNW,10.4,-,N/A,,Partly Cloudy,340,2012-11-01 15:53:00
8:53 AM,23.0,7.0,50,29.80,10.0,North,8.1,17.3,N/A,,Mostly Cloudy,350,2012-11-01 16:53:00
9:53 AM,21.9,7.0,53,29.82,10.0,North,6.9,-,N/A,,Scattered Clouds,350,2012-11-01 17:53:00
10:53 AM,21.9,6.1,51,29.85,10.0,North,6.9,-,N/A,,Partly Cloudy,350,2012-11-01 18:53:00
11:53 AM,21.9,5.0,48,29.85,10.0,North,9.2,-,N/A,,Clear,350,2012-11-01 19:53:00
12:53 PM,26.1,7.0,44,29.85,10.0,North,11.5,-,N/A,,Clear,350,2012-11-01 20:53:00
2:53 PM,28.9,8.1,41,29.83,10.0,North,10.4,-,N/A,,Clear,350,2012-11-01 22:53:00
3:53 PM,28.0,8.1,43,29.82,10.0,North,11.5,18.4,N/A,,Clear,350,2012-11-01 23:53:00
4:53 PM,28.0,7.0,41,29.81,10.0,North,11.5,-,N/A,,Clear,360,2012-11-02 00:53:00
5:53 PM,28.0,8.1,43,29.80,10.0,North,6.9,-,N/A,,Clear,360,2012-11-02 01:53:00
6:53 PM,27.0,5.0,39,29.78,10.0,North,9.2,-,N/A,,Clear,10,2012-11-02 02:53:00
7:53 PM,27.0,6.1,41,29.76,10.0,North,9.2,-,N/A,,Clear,10,2012-11-02 03:53:00
8:53 PM,26.1,6.1,43,29.75,10.0,NNE,9.2,-,N/A,,Clear,20,2012-11-02 04:53:00
9:53 PM,26.1,8.1,47,29.73,10.0,North,9.2,-,N/A,,Mostly Cloudy,10,2012-11-02 05:53:00
10:53 PM,25.0,7.0,46,29.70,10.0,North,8.1,-,N/A,,Scattered Clouds,360,2012-11-02 06:53:00
11:53 PM,25.0,7.0,46,29.67,10.0,North,10.4,-,N/A,,Partly Cloudy,350,2012-11-02 07:53:00